AirNav   Pilot Hours Calculator
 
 326 users online  

2XA0 Foard County Airport
Crowell, Texas, USA

GOING TO CROWELL?


FAA INFORMATION EFFECTIVE 28 FEBRUARY 2019

Location

FAA Identifier: 2XA0
Lat/Long: 33-58-45.3030N / 099-42-46.3350W
33-58.755050N / 099-42.772250W
33.9792508 / -99.7128708
(estimated)
Elevation: 1479 ft. / 450.8 m (surveyed)
Variation: 08E (1985)
From city: 1 mile E of CROWELL, TX
Time zone: UTC -6 (UTC -5 during Daylight Saving Time)
Zip code: 79227

Airport Operations

Airport use: Private use. Permission required prior to landing
Activation date: 10/1946
Control tower: no
ARTCC: FORT WORTH CENTER
FSS: FORT WORTH FLIGHT SERVICE STATION
Attendance: UNATNDD
Wind indicator: yes
Segmented circle: yes
Beacon: white-green (lighted land airport)
ROTG BCN OTS INDEFLY. Operates sunset to sunrise.

Nearby radio navigation aids

VOR radial/distance  VOR name  Freq  Var
GTHr059/33.3GUTHRIE VORTAC114.5010E
CDSr119/36.9CHILDRESS VORTAC117.6010E

Airport Services

Parking: tiedowns
Airframe service: NONE
Powerplant service: NONE
Bottled oxygen: NONE
Bulk oxygen: NONE

Runway Information

Runway 17/35

Dimensions: 3200 x 39 ft. / 975 x 12 m
Surface: asphalt, in poor condition
RY PAVEMENT HAS GRASS ENCROACHMENT.
Weight bearing capacity: 
Single wheel: 8.0
Runway edge lights: medium intensity
MIRL OTS INDEFLY.
Runway edge markings: RY MARKINGS FADED.
RUNWAY 17  RUNWAY 35
Gradient: 0.9%0.9%
Traffic pattern: leftleft
Markings: basic, in poor conditionbasic, in poor condition
Obstructions: 15 ft. road, 490 ft. from runway, 19:1 slope to clearnone
+10 FT TREE 55 FT LEFT 135 FT SOUTH OF THLD.

Airport Ownership and Management from official FAA records

Ownership: Publicly-owned
Owner: FOARD COUNTY
COUNTY COURTHOUSE, PO BOX 660
CROWELL, TX 79227
Phone 940-684-1424
Manager: MARK CHRISTOPHER
COUNTY COURTHOUSE, PO BOX 660
CROWELL, TX 79227
Phone 940-684-1424

Airport Operational Statistics

Aircraft operations: avg 42/month *
100% transient general aviation
* for 12-month period ending 17 February 2004

Additional Remarks

ARPT CLSD NIGHTS.

Instrument Procedures

There are no published instrument procedures at 2XA0.

Some nearby airports with instrument procedures:

F05 - Wilbarger County Airport (26 nm NE)
3F6 - Dan E Richards Municipal Airport (28 nm W)
60F - Seymour Municipal Airport (30 nm SE)
KCDS - Childress Municipal Airport (39 nm NW)
KFDR - Frederick Regional Airport (43 nm NE)
 
Loc | Ops | Rwys | IFR | FBO | Links
Com | Nav | Svcs | Stats | Notes
Area around 2XA0 (Foard County Airport)
 
Road maps at: MapQuest Bing Google
 
Aerial photo
No photo
 
Sectional chart

 
Airport distance calculator
Flying to Foard County Airport? Find the distance to fly.

From to 2XA0

Sunrise and sunset
Times for 24-Mar-2019
 Local
(UTC-5)
 Zulu
(UTC)
Morning civil twilight07:1312:13
Sunrise07:3812:38
Sunset19:5200:52
Evening civil twilight20:1701:17

Current date and time
Zulu (UTC)  24-Mar-2019 07:10:02
Local (UTC-5)  24-Mar-2019 02:10:02
 
METAR
KF05 
26nm NE 
240655Z AUTO 17007KT 10SM CLR 13/07 A2994 RMK AO1 T01270066
KCDS 
39nm NW 
240653Z AUTO 11006KT 10SM CLR 11/05 A2994 RMK AO2 SLP126 T01060050
KFDR 
43nm NE 
240653Z AUTO 16006KT 10SM CLR 12/11 A2990 RMK AO2 SLP115 T01220106 $
KLTS 
47nm NE 
240656Z AUTO 00000KT 10SM CLR 08/05 A2992 RMK AO2 SLP126 T00750048 $
KAXS 
47nm NE 
240655Z AUTO 10007KT 10SM CLR 12/07 A2995 RMK AO2 T01210065
TAF
KCDS 
39nm NW 
240520Z 2406/2506 VRB05KT P6SM FEW250 FM241400 34010KT P6SM FEW250
NOTAMs
Click for the latest NOTAMs
NOTAMs are issued by the DoD/FAA and will open in a separate window not controlled by AirNav.

 

 
 

Would you like to see your business listed on this page?

 If your business provides an interesting product or service to pilots, flight crews, aircraft, or users of the Foard County Airport, you should consider listing it here.  To start the listing process, click on the button below
 
Add a business
 

Other Pages about Foard County Airport

Update a link
 
Copyright © AirNav, LLC. All rights reserved. Privacy Policy  Contact